Regional Weather Roundup
Issued by NWS Goodland, KS

Home | Current Version | Previous Version | Graphics & Text | Print | Product List | Glossary On
Versions: 1 2 3 4 5 6 7 8 9 10 11 12 13 14 15 16 17 18 19 20 21 22 23 24 25 26 27 28 29 30 31 32 33 34 35 36 37 38 39 40 41 42 43 44 45 46 47 48 49 50
252
ASUS43 KGLD 202159
RWRGLD

GOODLAND FORECAST AREA HOURLY WEATHER ROUNDUP
NATIONAL WEATHER SERVICE GOODLAND KS
300 PM MST FRI JAN 20 2017

...OFFICIAL OBSERVATIONS...

CITY           SKY/WX    TMP DP  RH WIND       PRES   REMARKS
GOODLAND KS    LGT RAIN  34  34 100 NW13      29.39R FOG
HILL CITY KS   CLOUDY    44  38  79 W7        29.38R
IMPERIAL NEB   CLOUDY    42  34  73 S3        29.35S
MCCOOK NEB     CLOUDY    38  35  89 CALM      29.37F
AKRON CO       CLOUDY    39  31  72 W13       29.36S
BURLINGTON CO  MIX PCPN  35  33  92 W13       29.40R
LIMON CO       MOSUNNY   37  34  89 SW8       29.38F
$$

...UNOFFICIAL OBSERVATIONS...

CITY           SKY/WX    TMP DP  RH WIND       PRES   REMARKS
LENORA KS        N/A     41  32  70 CALM        N/A
NORTON KS      CLOUDY    39  37  93 NW8       29.36F
SHARON SPRINGS   N/A     37  36  95 NW14        N/A
TRENTON NEB      N/A     37  32  82 CALM        N/A
KIT CARSON CO    N/A     34  30  86 CALM        N/A
YUMA CO        CLOUDY    36  32  87 W8        29.37S
$$




USA.gov is the U.S. government's official web portal to all federal, state and local government web resources and services.